Theta_e
304 305 305 305 305 305 305 306 308 310 308 307 308 308 309 309 309 309 311 311 312 322 321 321 321 320 320 340 345 347 351 350 352 355 352 349 348 349 352 350 350 351 347 347 347
305 305 307 307 306 305 305 306 308 309 309 307 307 308 308 309 310 313 316 311 311 321 319 321 320 320 329 334 343 346 347 349 350 350 352 349 347 348 351 351 350 348 347 347 347
306 307 308 308 307 306 305 306 308 309 308 307 307 308 309 309 314 326 319 314 313 320 322 321 319 325 328 330 334 340 347 347 351 349 348 347 346 350 353 352 349 347 347 347 348
309 309 308 307 307 307 305 306 309 309 308 307 308 308 309 310 325 324 319 312 316 318 319 321 325 327 327 331 333 336 338 348 350 349 347 348 349 350 351 352 349 348 348 347 348
309 309 307 306 306 306 305 305 309 310 308 308 308 308 309 312 314 321 321 319 316 318 319 319 321 321 324 327 332 334 335 342 347 349 348 351 349 348 352 351 351 348 348 347 348
308 306 305 305 305 305 305 306 310 310 308 308 309 308 309 313 320 320 320 322 319 317 318 317 323 325 324 329 332 334 335 335 347 348 349 351 351 351 351 348 350 349 348 347 346
304 304 305 305 305 305 305 307 311 311 310 309 311 309 310 312 321 321 320 320 325 319 316 317 323 326 330 332 334 333 334 333 346 349 348 352 350 350 349 349 353 351 349 348 347
304 305 305 304 304 305 305 310 313 313 310 311 316 320 317 325 323 321 319 319 322 322 316 317 319 325 326 330 330 327 323 323 342 351 351 351 355 352 350 351 351 350 349 349 348
304 304 305 305 305 305 307 314 314 312 310 315 325 324 325 325 320 319 320 320 320 327 321 319 319 324 324 328 324 322 329 326 339 350 351 351 353 350 351 351 350 350 349 349 348
304 305 308 308 306 306 314 316 319 318 313 317 315 319 321 319 318 319 319 320 321 328 324 322 321 321 322 323 329 329 327 323 323 349 351 352 352 350 350 353 350 349 348 347 348
306 306 309 310 306 313 316 316 315 316 315 316 320 320 319 318 317 317 320 322 325 327 320 321 324 326 327 325 325 325 325 325 324 323 334 353 351 351 347 352 350 349 347 347 348
309 307 309 309 311 315 316 316 315 316 314 315 315 315 317 317 317 318 318 323 325 323 323 323 325 324 326 326 326 326 326 324 323 322 320 339 353 348 349 350 350 349 348 348 347
312 309 309 310 315 317 316 316 316 315 312 314 315 316 316 315 315 318 318 320 325 325 325 326 328 328 327 328 327 325 324 324 324 325 349 350 355 353 347 347 351 348 349 348 348
313 311 309 311 316 317 316 316 316 315 310 315 315 316 316 315 318 321 322 321 322 326 324 326 325 327 326 328 325 325 322 324 323 320 321 335 347 350 351 349 349 350 346 349 348
313 313 309 313 316 317 316 316 316 315 316 317 315 315 315 315 317 317 317 319 319 320 319 323 323 324 323 323 325 325 324 322 322 319 319 319 322 335 349 351 347 347 348 346 349
314 313 311 314 317 317 316 316 316 311 316 315 315 314 313 314 315 317 317 318 317 317 316 318 319 320 320 322 322 324 322 318 315 315 319 319 318 321 349 350 347 345 345 349 349
314 313 315 316 317 316 316 317 312 315 315 317 313 313 312 313 314 315 313 312 312 315 314 314 315 314 315 318 318 319 317 320 320 319 319 316 319 320 329 341 344 343 343 346 349
313 316 316 316 316 316 317 312 316 317 316 316 316 315 313 313 312 313 312 311 312 311 310 313 315 314 315 315 317 319 318 319 323 321 320 315 321 326 332 335 337 337 342 344 347
318 318 318 317 316 316 317 312 314 315 314 315 315 315 314 315 313 313 311 311 313 311 312 312 315 314 315 315 315 317 316 317 316 316 320 320 321 324 334 336 336 337 339 341 342
319 318 317 317 317 317 312 314 314 313 314 315 316 315 314 314 315 312 312 311 313 311 310 313 314 313 314 314 314 312 313 318 315 321 324 322 323 335 339 338 339 342 342 342 342
318 317 316 318 317 317 311 313 313 313 314 313 313 313 313 313 312 311 312 312 313 313 309 310 310 312 312 312 313 311 312 311 314 316 320 322 334 334 338 335 336 337 341 341 343
318 313 316 317 315 309 310 313 314 311 313 312 312 312 312 312 311 311 312 313 313 311 311 307 307 310 313 310 311 312 311 309 313 316 316 318 332 330 332 333 333 334 333 337 343
317 316 316 317 311 308 311 312 312 311 310 311 310 310 309 310 310 311 312 312 312 310 310 309 305 307 309 309 308 309 311 310 308 308 312 319 324 331 332 333 331 331 331 332 336
316 311 315 315 312 310 311 311 312 312 311 310 309 309 308 308 306 309 309 312 313 315 314 309 303 305 306 309 309 312 312 312 309 311 312 314 314 331 331 331 331 331 329 329 330
316 312 312 310 311 309 309 310 312 312 311 310 310 309 309 308 308 309 308 308 309 310 310 305 308 310 309 309 311 311 311 312 313 313 313 315 329 324 329 328 329 331 331 328 327
317 316 314 311 310 309 307 310 312 312 311 310 309 310 308 309 309 310 309 309 309 308 308 306 310 310 309 310 309 309 313 313 315 321 318 320 323 318 323 322 322 324 330 328 326
317 318 315 310 308 308 309 311 312 312 312 311 309 308 309 310 310 310 310 310 309 308 305 306 306 306 308 308 307 308 311 319 319 317 320 323 319 317 322 319 319 320 321 325 324
Wind_Speed
18 19 19 19 18 17 17 15 14 14 13 12 12 11 10 11 12 15 14 8 16 13 17 20 16 13 14 12 8 6 2 3 3 5 6 7 1 10 7 17 5 4 16 33 36
20 20 19 19 19 18 17 15 13 13 14 13 12 12 12 11 13 12 5 9 19 15 22 23 19 18 8 7 9 5 3 5 2 6 10 14 6 8 5 6 9 20 35 34 35
20 20 20 21 20 18 17 16 13 13 13 13 11 10 10 9 8 2 6 14 19 18 17 15 16 16 5 6 8 7 4 5 2 9 24 18 13 5 2 4 4 32 39 39 36
21 21 21 21 20 19 16 15 14 14 12 11 9 8 6 5 2 2 7 13 18 20 17 18 18 10 5 5 11 4 8 6 8 11 11 12 17 11 10 4 5 28 36 42 39
22 22 22 22 20 18 16 15 14 13 11 8 6 6 4 3 4 3 4 10 18 20 22 21 19 9 5 4 7 4 6 11 12 18 9 11 8 5 7 7 5 31 33 31 36
24 22 21 20 19 17 14 13 13 12 10 6 6 4 2 3 6 5 3 4 9 20 22 23 17 19 3 4 3 4 10 13 18 17 12 9 8 7 9 6 10 28 32 32 31
22 21 20 19 18 16 13 11 12 11 10 6 4 4 7 5 5 6 3 1 2 10 22 24 7 11 1 5 7 15 7 4 11 16 7 12 2 5 13 15 18 30 31 30 30
22 19 19 19 17 15 12 10 10 10 7 4 1 2 6 3 7 11 7 6 4 4 12 18 19 5 3 6 6 2 4 3 3 11 10 8 4 11 18 24 22 29 33 31 34
22 21 19 18 18 13 9 9 9 5 2 0 1 3 4 4 6 7 8 6 6 7 10 7 11 5 2 1 4 6 1 1 2 12 5 9 4 7 17 23 23 27 34 32 33
22 21 20 19 15 10 7 5 4 0 1 3 6 4 1 1 7 8 6 5 8 11 7 7 7 2 3 3 3 1 2 2 2 7 3 8 8 4 15 17 27 29 30 35 37
22 21 20 18 11 4 7 3 3 2 8 6 7 7 11 4 4 6 10 7 11 10 5 6 4 4 6 6 4 3 3 2 4 7 6 15 9 11 17 10 24 27 32 33 38
20 19 18 15 5 4 9 8 9 6 8 11 12 16 13 9 4 7 7 6 8 4 4 5 3 7 1 4 4 2 1 5 6 4 6 3 4 6 12 14 25 30 32 35 34
21 17 15 7 2 4 11 13 10 6 0 7 7 8 6 4 4 6 9 5 5 4 4 5 4 3 4 3 2 3 3 4 6 2 5 8 3 2 3 7 11 19 31 32 34
18 15 12 1 2 3 8 7 6 4 4 5 3 2 5 4 3 7 10 3 1 8 7 3 3 5 4 5 6 5 7 7 4 3 2 3 2 5 8 10 12 17 28 29 33
15 13 7 1 1 5 7 7 4 2 4 2 3 3 5 4 8 4 4 4 4 4 6 6 2 5 5 9 6 9 5 7 5 3 3 3 4 3 8 11 18 27 23 30 30
13 8 4 0 1 5 12 3 2 4 3 2 2 2 4 1 3 5 3 3 3 4 2 5 1 3 6 3 8 7 4 6 4 4 3 4 5 4 6 20 17 23 26 28 35
7 7 7 4 2 7 8 0 5 5 6 8 4 1 4 1 2 4 6 10 5 3 4 4 4 5 7 3 4 5 6 2 2 2 5 5 3 2 9 11 16 21 32 37 37
10 10 7 6 3 6 5 5 9 5 4 4 4 1 5 2 7 7 4 6 7 6 4 3 2 7 7 2 1 3 6 5 5 4 4 6 5 1 6 15 20 19 28 26 35
7 5 9 6 6 9 3 6 0 3 5 7 4 7 7 7 5 6 5 5 6 5 5 2 2 5 4 6 2 3 5 0 6 4 4 2 3 5 22 15 20 22 19 30 38
5 7 14 9 9 9 6 4 3 6 6 5 5 5 7 8 5 5 5 5 5 11 1 1 2 3 6 7 10 7 2 4 4 4 3 4 4 3 17 20 20 22 23 18 37
8 5 11 6 8 8 4 2 3 11 6 6 5 5 2 3 4 3 2 4 5 4 12 2 3 6 3 7 6 7 6 5 3 3 5 3 2 5 10 11 15 25 38 16 32
15 5 18 2 6 3 3 2 4 10 13 7 4 4 4 4 6 4 4 2 6 3 4 5 3 3 3 7 10 16 5 3 4 5 2 3 1 7 8 12 21 29 36 38 20
7 8 23 5 4 3 4 5 10 7 7 5 7 5 6 4 5 4 4 9 10 4 2 3 4 3 4 6 8 7 7 5 3 2 2 1 2 8 13 13 22 30 32 37 36
4 4 8 19 8 6 4 5 3 11 8 7 5 6 7 10 10 5 5 7 11 10 11 8 4 5 5 3 2 3 5 6 4 3 3 2 5 7 12 11 18 21 34 33 35
6 2 3 3 7 6 5 4 4 3 5 11 8 7 3 5 5 5 6 5 7 12 7 5 3 2 3 2 2 1 2 3 1 3 3 4 4 9 10 11 18 15 18 30 30
5 4 3 5 3 7 6 3 2 3 4 3 6 5 7 5 4 1 1 1 1 6 4 4 2 2 2 3 3 2 4 4 2 3 3 4 3 12 15 18 20 24 20 22 24
8 7 3 6 3 4 1 1 2 1 6 5 3 4 4 1 1 3 3 3 3 3 3 3 4 3 2 3 2 3 5 6 6 9 4 5 4 9 11 15 21 24 25 21 21
Wind_Direction
339 338 337 336 334 335 336 336 330 324 317 311 308 309 308 295 293 289 277 242 192 176 180 172 177 175 172 189 180 232 281 282 267 151 123 137 319 5 353 150 133 6 161 156 155
336 336 335 334 332 330 331 332 328 324 315 311 305 306 304 305 303 299 259 192 181 166 164 173 172 169 175 186 189 202 179 229 283 106 150 151 119 351 10 169 36 102 138 154 161
333 332 332 331 329 327 327 327 323 323 315 309 305 306 306 313 321 66 32 182 179 158 159 165 169 165 185 184 199 203 211 188 130 124 143 145 143 149 210 262 82 149 147 164 168
332 330 328 326 324 323 323 325 321 321 318 309 307 303 306 307 170 92 69 159 165 173 163 168 165 170 191 202 210 259 231 188 152 154 162 162 139 162 193 147 182 171 160 167 172
331 329 326 324 322 319 318 321 320 321 322 313 306 304 298 268 243 145 81 149 178 176 178 176 176 169 191 202 221 239 271 202 193 164 165 153 158 169 137 213 138 170 167 164 175
331 329 327 324 320 317 315 317 315 316 320 310 306 291 245 266 153 152 91 121 179 186 181 184 192 186 227 253 185 232 241 259 191 173 166 159 153 170 170 224 155 169 174 176 180
332 332 331 327 321 316 315 314 309 312 316 303 297 248 253 227 170 189 210 28 70 200 187 189 180 193 3 300 319 273 268 307 154 156 164 148 94 210 174 186 187 176 177 178 181
337 338 336 330 324 317 319 311 307 306 302 299 244 287 249 141 205 228 231 209 206 132 194 197 198 240 258 303 316 299 52 34 186 156 169 164 232 203 164 172 173 177 178 182 187
339 339 340 335 325 321 329 313 307 296 257 269 293 327 253 192 202 170 175 195 209 178 135 153 183 230 263 152 12 3 152 54 119 211 159 187 247 223 166 155 171 180 180 184 185
340 339 340 338 331 334 347 339 37 206 285 279 265 325 209 284 179 176 175 198 206 178 164 164 185 122 29 81 204 177 45 20 71 171 197 202 250 270 172 180 180 186 188 186 188
339 339 339 340 337 23 32 90 11 40 311 249 278 276 288 8 202 191 158 173 165 158 139 187 110 194 217 196 177 141 178 283 225 202 200 209 216 217 168 182 181 187 197 194 197
338 335 339 345 0 63 49 45 18 342 301 286 268 266 275 285 292 183 177 157 153 181 133 50 193 221 242 210 199 263 331 294 291 275 171 315 274 206 174 195 189 193 197 201 197
335 336 338 355 49 52 59 28 9 330 274 294 234 250 259 233 227 182 176 140 127 149 139 138 218 187 170 277 260 260 181 232 223 7 28 115 43 177 168 238 240 208 211 211 202
334 334 338 36 103 70 28 1 349 344 62 286 225 241 222 206 45 158 170 140 84 181 150 194 238 201 242 240 158 262 199 234 246 71 253 150 235 243 214 236 260 237 216 213 212
335 329 334 70 119 28 336 296 292 307 75 191 184 139 173 156 151 176 156 147 144 130 101 242 218 179 205 228 156 236 214 193 202 151 81 303 87 259 176 233 240 237 224 225 221
334 335 342 244 141 335 330 333 200 39 79 17 122 151 93 57 202 125 89 71 109 119 338 224 247 137 214 231 188 236 129 52 62 107 62 251 121 290 185 222 238 237 229 224 219
15 57 80 69 304 317 335 333 44 64 325 344 341 79 80 46 27 45 76 50 36 57 3 2 15 325 31 46 20 92 68 353 31 57 191 241 75 257 268 283 244 229 214 218 217
90 82 67 51 7 353 5 58 59 329 326 328 316 31 76 109 9 22 55 30 5 39 65 57 15 7 332 6 311 325 144 151 179 170 185 235 203 118 337 7 354 322 249 229 218
68 52 35 12 9 355 76 56 183 305 287 324 336 49 2 2 101 75 58 33 20 356 107 54 121 337 334 46 53 310 51 269 96 19 73 261 304 280 351 355 357 344 328 224 214
4 31 31 349 350 7 73 98 81 339 340 30 69 23 36 346 59 69 32 314 350 19 124 90 41 2 306 11 33 78 331 64 12 128 154 293 76 348 351 345 345 357 334 275 224
41 58 2 351 358 42 92 99 50 6 50 46 23 37 36 6 50 72 52 345 351 358 54 43 59 304 40 20 336 11 14 5 108 98 152 164 22 51 2 350 9 6 10 347 212
48 45 20 340 38 17 42 38 60 4 34 35 66 55 41 7 46 65 92 78 338 15 52 342 119 49 34 310 109 76 58 71 86 326 23 113 166 358 337 357 44 29 25 35 71
55 42 35 125 84 11 348 30 57 35 21 38 13 16 26 34 89 63 77 18 25 62 87 330 19 45 23 343 12 39 356 19 109 61 27 94 278 15 360 347 33 50 35 38 45
58 33 25 53 73 104 75 6 90 42 49 58 22 44 47 22 21 55 35 39 38 74 67 86 63 128 164 196 201 7 5 6 89 72 299 124 307 2 3 359 15 33 53 41 44
56 67 34 348 15 69 67 11 52 34 46 34 26 36 75 58 36 43 11 3 19 17 34 88 104 119 165 208 96 282 295 295 163 205 138 267 63 354 349 5 1 20 37 56 35
74 51 55 50 336 38 18 351 52 358 48 18 91 52 59 91 130 93 60 0 318 360 49 22 161 76 0 30 58 83 26 60 55 309 219 186 80 353 44 27 8 17 19 32 41
79 59 88 15 27 74 272 300 352 113 42 76 114 106 63 115 293 320 247 232 69 57 55 52 124 90 290 360 76 24 342 106 101 38 340 59 47 360 44 27 16 11 16 19 26